www.pogodaiklimat.ru

Погода и климат >> Архив погоды >> Россия >> Ставропольский край >> Зеленокумск


ПОГОДА в Зеленокумске

  • Прогноз погоды в Зеленокумске
  • Монитор погоды в Зеленокумске

АРХИВ ПОГОДЫ в Зеленокумске

Время (UTC), дата Ветер
(напр.,м/с)
 
Видим.   Явления Облачность Т
(С)
Тd
(С)
f
(%)
Тe
(С)
Тes
(С)
Комфортность P
(гПа)
Po
(гПа)
Тmin
(С)
Tmax
(С)
R
(мм)
R24
(мм)
S
(см)
03 9.06 штиль 0 20 км ясно +17.7 +12.6 72 +18 +20 1019.4 1002.0 +15.4
06 9.06 СВ 1 20 км ясно +26.4 +15.3 50 +29 +43 жарко 1019.0 1002.1
09 9.06 В 3 20 км 1/1 600 м
[Cu hum]
+30.8 +13.0 34 +32 +46 жарко 1018.2 1001.5
12 9.06 В 2 20 км 3/0 2000 м
[Ac lent]
+32.3 +9.8 25 +32 +41 жарко 1017.2 1000.6
15 9.06 В 3 20 км 6/0 2000 м
[Ac lent]
+31.3 +10.8 28 +31 +32 жарко 1016.4 999.8 +32.7
18 9.06 В 2 20 км 4/0 2000 м
[Ac trans Ci fib]
+24.2 +9.7 40 +25 +25 комфорт 1017.8 1000.7
21 9.06 В 1 20 км 3/0 2000 м
[Ac trans]
+21.2 +9.6 47 +23 +23 комфорт 1017.8 1000.6
00 10.06 штиль 0 20 км ясно +15.1 +10.2 73 +15 +15 1017.8 1000.2
03 10.06 штиль 0 20 км 3/0 2000 м
[Ac lent]
+17.0 +12.2 73 +17 +19 1018.8 1001.3 +12.6
06 10.06 В 4 20 км 3/0
[Ci]
+26.9 +8.8 32 +27 +35 жарко 1017.6 1000.7
09 10.06 В 3 20 км 10/0
[Ci]
+30.5 +12.2 33 +31 +44 жарко 1016.0 999.3
12 10.06 В 4-10
{10}
20 км 8/0
[Ci sp]
+32.6 +11.7 28 +33 +40 жарко 1014.0 997.4
15 10.06 В 3
{10}
20 км 10/0
[Ac cast Ci]
+31.5 +11.3 29 +32 +32 жарко 1013.3 996.7 +32.9
18 10.06 В 1 20 км 10/0
[Ac lent Ci]
+25.2 +11.3 42 +27 +27 жарко 1014.8 997.8
21 10.06 С 1 20 км 5/0
[Ac lent Ci fib]
+20.4 +14.1 67 +24 +24 комфорт 1014.1 996.9
00 11.06 штиль 0 20 км ясно +17.2 +14.8 86 +17 +17 1013.3 996.0
03 11.06 СВ 1 20 км 8/0
[Ci]
+18.5 +15.8 84 +20 +22 1013.4 996.1 +16.5
06 11.06 В 3 20 км 3/0
[Ci fib]
+25.2 +16.7 59 +29 +38 душно 1012.4 995.5
09 11.06 В 3
{10}
20 км 6/0 2000 м
[Ac lent Ci]
+31.0 +15.8 40 +34 +45 душно 1010.3 993.8
12 11.06 В 3 20 км 8/0 2000 м
[Ac trans Ci]
+33.3 +13.6 30 +34 +40 очень
жарко
1008.5 992.1
15 11.06 В 2 20 км 10/0 2000 м
[Ac trans Cs]
+31.4 +14.5 36 +33 +34 жарко 1008.1 991.6 +33.9
18 11.06 В 2 20 км 4/3 600 м
[Sc Ac trans]
+26.1 +13.7 46 +28 +28 жарко 1009.4 992.6
21 11.06 СВ 1 20 км 3/0 2000 м
[Ac lent Ci fib]
+21.7 +11.6 53 +24 +24 комфорт 1009.2 992.2
00 12.06 штиль 0 20 км ясно +18.1 +12.3 69 +18 +18 1009.8 992.6
03 12.06 штиль 0 50 км ?/? +20.1 +14.9 72 +22 +22 комфорт 1010.3 993.2 +17.0
06 12.06 В 3 20 км 5/3 600 м
[Cu med, cong Ac trans Ci fib]
+26.1 +14.0 47 +28 +34 жарко 1009.8 993.0
09 12.06 штиль 0 10 км слаб. ливневой дождь, в посл. час гроза 9/8 600 м
[Cb cap Ac trans]
+19.6 +17.2 86 +22 +25 комфорт 1010.5 993.3
12 12.06 С 1 20 км {гроза, ливн. осадки} 8/3 600 м
[Sc diur, vesp Ac trans]
+29.5 +16.2 45 +33 +39 душно 1008.0 991.5
15 12.06 В 3 20 км 10/1 600 м
[Sc Ac trans Cs]
+31.1 +10.5 28 +31 +32 жарко 1007.5 991.0 +32.3 2
18 12.06 СВ 1 20 км 9/5 600 м
[Sc Ac trans]
+24.4 +12.0 46 +26 +26 жарко 1009.4 992.5
21 12.06 штиль 0 20 км 4/0 2000 м
[Ac trans]
+21.6 +12.5 56 +24 +24 комфорт 1009.1 992.1
00 13.06 штиль 0 20 км ясно +17.3 +12.5 73 +17 +17 1008.5 991.2
03 13.06 штиль 0 20 км 8/0 2000 м
[Ac trans Ci fib]
+17.4 +13.7 79 +17 +19 1009.1 991.8 +14.9
06 13.06 СВ 1 20 км 8/0 2000 м
[Ac trans]
+23.3 +16.9 67 +28 +36 душно 1010.0 993.1
09 13.06 СВ 1 20 км 10/0
[Ci sp]
+28.9 +17.4 50 +33 +51 опасность
солнечного
удара
1009.7 993.1
12 13.06 В 2 20 км 8/1 600 м
[Cu med, cong Ci sp]
+33.5 +9.4 23 +33 +42 жарко 1008.5 992.1
15 13.06 СВ 2 20 км 10/0 2000 м
[Ac lent Ci sp]
+32.5 +8.9 23 +31 +32 жарко 1008.6 992.2 +34.1
18 13.06 З 3
{10}
20 км 10/5 600 м
[Sc Ac trans]
+23.1 +9.0 41 +25 +25 комфорт 1008.6 994.5
21 13.06 ЮЗ 1 20 км 8/3 600 м
[Sc Ac trans]
+21.2 +15.8 71 +24 +24 комфорт 1012.1 995.0
00 14.06 ЮЗ 1 20 км 8/0 2000 м
[Ac trans]
+18.2 +15.5 84 +20 +20 1011.9 994.6
03 14.06 штиль 0 20 км 10/0 2000 м
[Ac lent Ci sp]
+18.7 +16.1 85 +20 +21 1013.1 995.8 +18.0
06 14.06 В 3 20 км 8/0 2000 м
[Ac lent Ci sp]
+26.2 +15.4 51 +29 +35 жарко 1013.7 996.9
09 14.06 В 2 н/о н/о +32.0 +16.2 39 +35 +35 очень
душно
1013.4 996.9
12 14.06 В 3
{10}
20 км 8/5 600 м
[Cb cap Ac cast]
+31.3 +16.5 41 +34 +37 душно 1012.2 995.7
15 14.06 В 3 20 км 8/5 600 м
[Sc diur, vesp Ac lent]
+29.4 +16.6 46 +33 +33 душно 1013.4 996.7 +32.8
18 14.06 В 2
{10}
20 км 10/3 600 м
[Sc As trans]
+23.5 +16.1 63 +27 +27 душно 1014.5 997.5
21 14.06 штиль 0 20 км 4/0 2000 м
[Ac trans]
+20.9 +15.7 72 +24 +24 комфорт 1015.3 998.1
00 15.06 СВ 1 20 км 4/0 2000 м
[Ac trans]
+18.2 +14.9 81 +20 +20 1014.6 997.3
03 15.06 В 1 20 км 6/0 2000 м
[Ac lent Ci fib]
+18.3 +15.1 82 +20 +21 1015.1 997.8 +15.8
06 15.06 В 3 20 км 3/0
[Ci fib]
+25.4 +14.9 52 +28 +37 жарко 1014.5 997.6
09 15.06 В 3 20 км 4/0
[Ac cast Ci]
+30.1 +10.6 30 +30 +43 жарко 1012.7 996.1
12 15.06 В 3 20 км 3/0
[Ac lent Ci fib]
+32.6 +9.6 24 +32 +41 жарко 1010.3 993.8
15 15.06 В 2 20 км 4/0
[Ac lent Ci fib]
+31.6 +9.2 25 +31 +32 жарко 1009.6 993.1 +33.2
18 15.06 В 1 20 км 8/0
[Ci]
+24.4 +10.5 42 +26 +26 жарко 1010.9 994.0
21 15.06 В 3 20 км 4/0
[Ci fib]
+21.7 +10.5 49 +23 +23 комфорт 1011.0 993.9
00 16.06 штиль 0 20 км 8/0
[Ac lent Ci]
+16.0 +11.1 73 +16 +16 1011.0 993.6

 

Местоположение метеостанции Зеленокумск (Ставропольский край, Россия): широта 44.43 долгота 43.88 высота над уровнем моря 148 м.

В архиве по умолчанию представлена погода в Зеленокумске за последнюю неделю. Архивные данные за месяц целиком и за предыдущие месяцы, начиная с января 2011 года, Вы можете получить, выбрав интересующий диапазон дат из раскрывающегося списка и нажав кнопку "Ввод!".


*Определитесь, кто Вы:
робот инопланетянин человек

Внимание! Время в таблицах - всемирное. Для получения местного времени необходимо прибавить поправку, которая равна 3 ч.

Смотрите также архив погоды в соседних городах и на ближайших метеорологических станциях:

Погода в Буденновске (Ставропольский край, Россия) (44 км)
Погода в Георгиевске (Ставропольский край, Россия) (48 км)
Погода в Минеральных Водах (Ставропольский край, Россия) (66 км)
Погода в Александровском (Ставропольский край, Россия) (77 км)
Погода в Прохладный (Кабардино-Балкария, Россия) (77 км)
Погода в Благодарном (Ставропольский край, Россия) (82 км)
Погода в Моздоке (Северная Осетия, Россия) (100 км)
Погода в Нальчике (Кабардино-Балкария, Россия) (102 км)
Погода в Рощино (Ставропольский край, Россия) (110 км)
Погода в Кисловодске (Ставропольский край, Россия) (110 км)

Пояснения к столбцам:

Ветер - указаны скорость ветра в м/с - средняя за 10 мин, порывы в срок и между сроками (в фигурных скобках) и направление, откуда дует ветер: С - северный, СВ - северо-восточный, В - восточный, ЮВ - юго-восточный, Ю - южный, ЮЗ - юго-западный, З - западный, СЗ - северо-западный.
Видимость - горизонтальная дальность видимости в метрах или километрах. При видимости от 1 до 10 км при отсутствии осадков обычно наблюдается дымка, при ухудшении видимости до 1 км и менее - туман. В сухую погоду видимость может ухудшаться дымом, пылью или мглою.
Явления - указаны атмосферные явления, наблюдавшиеся в срок или в последний час перед сроком; фигурными скобками обозначены явления, наблюдавшиеся между сроками (за 1-3 часа до срока); квадратными скобками обозначены град или гололедные отложения с указанием их диаметра в мм.
Облачность - указаны через наклонную черту общая и нижняя облачность в баллах и высота нижней границы облаков в метрах; квадратными скобками обозначены формы облаков: Ci - перистые, Cs - перисто-слоистые, Cc - перисто-кучевые, Ac - высококучевые, As - высокослоистые, Sc - слоисто-кучевые, Ns - слоисто-дождевые, Cu - кучевые, Cb - кучево-дождевые. Подробнее классификацию облаков см. в Атласе облаков (PDF).
T - Температура воздуха - температура, измеренная на высоте 2 м над землей.
Td - Температура точки росы - температура, при понижении до которой содержащийся в воздухе водяной пар достигнет насыщения.
f - Относительная влажность воздуха - влажноcть воздуха, измеренная на высоте 2 м над землей.
Te - Эффективная температура - температура, которую ощущает одетый по сезону человек в тени. Характеристика душности погоды. При расчете учитывается влияние влажности воздуха и скорости ветра на теплоощущения человека.
Tes - Эффективная температура на солнце - температура, которую ощущает человек, с поправкой на солнечный нагрев. Характеристика знойности погоды. Зависит от высоты солнца над горизонтом, облачности и скорости ветра. Ночью, в пасмурную погоду, а также при ветре 12 м/с и более поправка равна нулю.
P - Атмосферное давление - приведенное к уровню моря атмосферное давление.
Po - Атмосферное давление - измеренное на уровне метеостанции атмосферное давление.
Tmin - Минимальная температура - минимум температуры воздуха на высоте 2 м над землей.
Tmax - Максимальная температура - максимум температуры воздуха на высоте 2 м над землей.
R - Количество осадков - Количество выпавших осадков за период времени, мм. При наведении курсора мыши на число - период времени, за который выпало указанное количество осадков.
R24 - Количество осадков - Количество выпавших осадков за 24 часа, мм.
S - Снежный покров - Высота снежного покрова, см. При наведении курсора мыши на число - состояние снежного покрова и степень покрытия местности в баллах.